DW0427 Weather Reports


Display with metric or nautical units.
time (UTC)temp
F
wind
direction
speed
MPH
gust
MPH
rain 1hr
in
rain 24hr
in
rain mn
in
humidity
%
barometer
mb
20260904024207 57 45 7.0 17.0 0.00 0.00 0.00 88 1009.6
20260904024008 58 46 6.0 14.0 0.00 0.00 0.00 88 1009.7
20260904023808 58 46 6.0 12.0 0.00 0.00 0.00 88 1009.6
20260904023608 58 45 6.0 15.0 0.00 0.00 0.00 88 1009.8
20260904023408 58 45 6.0 15.0 0.00 0.00 0.00 88 1009.6
20260904023208 58 46 5.0 15.0 0.00 0.00 0.00 88 1009.6
20260904023007 58 46 5.0 15.0 0.00 0.00 0.00 88 1009.7
20260904022807 58 46 4.0 15.0 0.00 0.00 0.00 88 1009.6
20260904022607 58 46 4.0 13.0 0.00 0.00 0.00 88 1009.7
20260904022407 58 46 4.0 13.0 0.00 0.00 0.00 88 1009.7
20260904022207 58 46 4.0 9.0 0.00 0.00 0.00 88 1009.7
20260904022007 58 45 4.0 9.0 0.00 0.00 0.00 88 1009.6
20260904021809 58 46 4.0 10.0 0.00 0.00 0.00 88 1009.5
20260904021607 58 46 5.0 10.0 0.00 0.00 0.00 88 1009.6
20260904021407 58 46 5.0 10.0 0.00 0.00 0.00 88 1009.6
20260904021207 58 46 5.0 10.0 0.00 0.00 0.00 89 1009.4
20260904021007 58 45 5.0 10.0 0.00 0.00 0.00 89 1009.5
20260904020807 58 45 5.0 11.0 0.00 0.00 0.00 89 1009.5
20260904020607 58 46 5.0 11.0 0.00 0.00 0.00 89 1009.6
20260904020407 58 45 5.0 11.0 0.00 0.00 0.00 89 1009.5
20260904020207 58 46 5.0 12.0 0.00 0.00 0.00 89 1009.5
20260904020008 58 46 4.0 12.0 0.00 0.00 0.00 89 1009.5
20260904015808 58 45 4.0 12.0 0.00 0.00 0.00 89 1009.5
20260904015607 58 45 4.0 12.0 0.00 0.00 0.00 89 1009.5
20260904015408 58 46 4.0 12.0 0.00 0.00 0.00 89 1009.6
20260904015208 58 45 4.0 8.0 0.00 0.00 0.00 89 1009.6
20260904015008 58 46 4.0 8.0 0.00 0.00 0.00 89 1009.6
20260904014808 58 46 4.0 8.0 0.00 0.00 0.00 89 1009.6
20260904014608 58 46 4.0 8.0 0.00 0.00 0.00 89 1009.7
20260904014408 58 46 5.0 11.0 0.00 0.00 0.00 89 1009.8
20260904014208 58 46 5.0 11.0 0.00 0.00 0.00 89 1009.6
20260904013808 58 46 5.0 11.0 0.00 0.00 0.00 89 1009.8
20260904013608 58 46 5.0 11.0 0.00 0.00 0.00 89 1009.6
20260904013208 58 46 4.0 11.0 0.00 0.00 0.00 89 1009.7
20260904013008 58 45 4.0 11.0 0.00 0.00 0.00 89 1009.6
20260904012607 58 46 5.0 10.0 0.00 0.00 0.00 89 1009.4
20260904012407 58 45 5.0 10.0 0.00 0.00 0.00 89 1009.4
20260904012208 58 46 5.0 12.0 0.00 0.00 0.00 89 1009.4
20260904012008 58 46 5.0 12.0 0.00 0.00 0.00 89 1009.3
20260904011808 58 46 4.0 12.0 0.00 0.00 0.00 89 1009.4
20260904011608 58 46 4.0 12.0 0.00 0.00 0.00 89 1009.4
20260904011408 58 45 4.0 12.0 0.00 0.00 0.00 89 1009.4
20260904010808 58 46 4.0 10.0 0.00 0.00 0.00 89 1009.6
20260904010608 58 46 4.0 10.0 0.00 0.00 0.00 89 1009.4
20260904010008 58 45 4.0 11.0 0.00 0.00 0.00 89 1009.6
20260904005808 58 46 4.0 11.0 0.00 0.00 0.00 89 1009.5
20260904005608 58 45 4.0 11.0 0.00 0.00 0.00 89 1009.4
20260904005408 58 45 4.0 9.0 0.00 0.00 0.00 89 1009.3
20260904005209 58 45 4.0 9.0 0.00 0.00 0.00 89 1009.2
20260904005009 58 46 5.0 9.0 0.00 0.00 0.00 89 1009.1
20260904004809 58 46 5.0 9.0 0.00 0.00 0.00 89 1008.9
20260904004608 58 46 4.0 9.0 0.00 0.00 0.00 89 1009.1
20260904004408 58 46 4.0 8.0 0.00 0.00 0.00 89 1009.2
20260904004208 58 45 4.0 8.0 0.00 0.00 0.00 89 1009.4
20260904004008 58 46 5.0 9.0 0.00 0.00 0.00 89 1009.6
20260904003808 57 46 5.0 9.0 0.00 0.00 0.00 89 1009.7
20260904003408 57 46 5.0 10.0 0.00 0.00 0.00 89 1009.4
20260904003208 57 45 5.0 10.0 0.00 0.00 0.00 89 1009.2
20260904003008 58 45 4.0 10.0 0.00 0.00 0.00 89 1009.3
20260904002808 58 45 4.0 10.0 0.00 0.00 0.00 89 1009.4
20260904002608 57 45 4.0 10.0 0.00 0.00 0.00 89 1009.6
20260904002208 57 45 3.0 9.0 0.00 0.00 0.00 89 1009.6
20260904002008 57 45 3.0 9.0 0.00 0.00 0.00 89 1009.5
20260904001808 57 46 3.0 6.0 0.00 0.00 0.00 89 1009.4
20260904001608 57 46 3.0 6.0 0.00 0.00 0.00 90 1009.4
20260904001408 57 46 3.0 6.0 0.00 0.00 0.00 90 1009.2
20260904001008 57 46 3.0 9.0 0.00 0.00 0.00 90 1009.1
20260904000808 57 46 3.0 9.0 0.00 0.00 0.00 90 1009.2
20260904000410 57 46 3.0 9.0 0.00 0.00 0.00 90 1009.3
20260904000208 57 46 3.0 9.0 0.00 0.00 0.00 90 1009.5
20260904000008 57 46 3.0 6.0 0.00 0.00 0.00 90 1009.5
20260903235808 57 46 3.0 6.0 0.00 0.00 0.00 90 1009.3
20260903235608 57 46 3.0 7.0 0.00 0.00 0.00 90 1009.2
20260903235208 57 46 3.0 7.0 0.00 0.00 0.00 90 1009.2
20260903235008 57 46 3.0 9.0 0.00 0.00 0.00 90 1009.2
20260903234808 57 46 3.0 9.0 0.00 0.00 0.00 90 1009.3
20260903234208 57 46 3.0 9.0 0.00 0.00 0.00 90 1009.4
20260903233807 57 45 2.0 7.0 0.00 0.00 0.00 90 1009.3
20260903233608 57 45 2.0 7.0 0.00 0.00 0.00 90 1009.3
20260903233408 57 46 2.0 7.0 0.00 0.00 0.00 90 1009.4
20260903233208 57 46 2.0 6.0 0.00 0.00 0.00 90 1009.4
20260903232807 57 46 3.0 6.0 0.00 0.00 0.00 90 1009.3
20260903232607 57 46 3.0 6.0 0.00 0.00 0.00 90 1009.3
20260903232407 57 46 3.0 6.0 0.00 0.00 0.00 90 1009.2
20260903232207 57 46 3.0 6.0 0.00 0.00 0.00 90 1009.3
20260903231807 57 46 2.0 6.0 0.00 0.00 0.00 90 1009.2
20260903231607 57 46 2.0 6.0 0.00 0.00 0.00 90 1009.2
20260903231408 57 45 2.0 4.0 0.00 0.00 0.00 90 1009.1
20260903231208 57 45 2.0 4.0 0.00 0.00 0.00 90 1009.1
20260903231008 57 45 2.0 4.0 0.00 0.00 0.00 90 1009.1
20260903230608 57 45 1.0 4.0 0.00 0.00 0.00 90 1009.3
20260903230408 57 45 1.0 4.0 0.00 0.00 0.00 90 1009.3
20260903230208 57 45 1.0 4.0 0.00 0.00 0.00 90 1009.3
20260903230008 57 45 1.0 4.0 0.00 0.00 0.00 90 1009.4
20260903225808 57 45 1.0 4.0 0.00 0.00 0.00 90 1009.4
20260903225608 57 45 0.0 3.0 0.00 0.00 0.00 90 1009.5
20260903225408 57 45 0.0 3.0 0.00 0.00 0.00 90 1009.4
20260903224808 57 45 0.0 2.0 0.00 0.00 0.00 90 1009.2
20260903224608 57 0 0.0 0.0 0.00 0.00 0.00 90 1009.1
20260903224408 57 0 0.0 0.0 0.00 0.00 0.00 89 1009.2
20260903224208 57 0 0.0 0.0 0.00 0.00 0.00 90 1009.2
20260903224008 57 0 0.0 0.0 0.00 0.00 0.00 89 1009.3
20260903223808 57 0 0.0 0.0 0.00 0.00 0.00 89 1009.3
20260903223608 57 0 0.0 0.0 0.00 0.00 0.00 89 1009.4
20260903223408 57 0 0.0 0.0 0.00 0.00 0.00 89 1009.5
20260903223208 57 0 0.0 0.0 0.00 0.00 0.00 89 1009.2
20260903223008 57 0 0.0 0.0 0.00 0.00 0.00 89 1009.4
20260903222808 57 45 0.0 1.0 0.00 0.00 0.00 89 1009.4
20260903222608 57 45 0.0 1.0 0.00 0.00 0.00 89 1009.5
20260903222208 57 45 0.0 1.0 0.00 0.00 0.00 89 1009.5
20260903222008 57 45 0.0 2.0 0.00 0.00 0.00 89 1009.4
20260903221808 57 45 1.0 2.0 0.00 0.00 0.00 89 1009.4
20260903221608 57 45 1.0 2.0 0.00 0.00 0.00 89 1009.3
20260903221408 57 45 2.0 2.0 0.00 0.00 0.00 89 1009.2
20260903221208 57 45 2.0 2.0 0.00 0.00 0.00 89 1009.1
20260903221008 57 45 3.0 4.0 0.00 0.00 0.00 89 1009.1
20260903220808 57 45 3.0 4.0 0.00 0.00 0.00 89 1009.1
20260903220608 57 45 3.0 4.0 0.00 0.00 0.00 89 1009.1
20260903220408 57 45 3.0 4.0 0.00 0.00 0.00 89 1009.1
20260903220208 57 46 3.0 4.0 0.00 0.00 0.00 89 1009.1
20260903215608 57 45 2.0 4.0 0.00 0.00 0.00 89 1009.1
20260903215407 57 45 2.0 4.0 0.00 0.00 0.00 89 1009.1
20260903215208 57 45 2.0 4.0 0.00 0.00 0.00 89 1009.2
20260903214808 57 45 2.0 4.0 0.00 0.00 0.00 89 1009.4
20260903214608 57 45 2.0 4.0 0.00 0.00 0.00 89 1009.4
20260903214407 57 45 2.0 4.0 0.00 0.00 0.00 89 1009.4
20260903214207 57 45 2.0 4.0 0.00 0.00 0.00 89 1009.5
20260903214007 57 45 2.0 4.0 0.00 0.00 0.00 89 1009.5
20260903213807 57 45 2.0 4.0 0.00 0.00 0.00 89 1009.6
20260903213408 57 46 2.0 6.0 0.00 0.00 0.00 89 1009.7
20260903213008 57 46 2.0 6.0 0.00 0.00 0.00 89 1009.8
20260903212808 57 46 2.0 6.0 0.00 0.00 0.00 89 1009.8
20260903212607 57 45 2.0 5.0 0.00 0.00 0.00 89 1009.9
20260903212408 57 45 2.0 5.0 0.00 0.00 0.00 89 1010.0
20260903212208 57 45 2.0 4.0 0.00 0.00 0.00 89 1009.9
20260903212008 57 45 2.0 5.0 0.00 0.00 0.00 89 1010.0
20260903211808 57 45 2.0 5.0 0.00 0.00 0.00 89 1010.0
20260903211608 57 46 2.0 5.0 0.00 0.00 0.00 89 1010.0
20260903211408 57 45 3.0 5.0 0.00 0.00 0.00 89 1010.1
20260903211208 57 45 3.0 5.0 0.00 0.00 0.00 89 1010.1
20260903211007 57 46 4.0 6.0 0.00 0.00 0.00 89 1010.1
20260903210807 57 46 4.0 6.0 0.00 0.00 0.00 89 1010.0
20260903210607 57 45 5.0 7.0 0.00 0.00 0.00 89 1010.0
20260903210407 57 45 5.0 8.0 0.00 0.00 0.00 88 1009.8
20260903210007 57 46 5.0 8.0 0.00 0.00 0.00 88 1010.0
20260903205807 57 46 5.0 8.0 0.00 0.00 0.00 89 1010.2
20260903205608 57 46 5.0 8.0 0.00 0.00 0.00 89 1010.1
20260903205208 57 46 4.0 8.0 0.00 0.00 0.00 88 1009.9
20260903205008 57 46 4.0 8.0 0.00 0.00 0.00 88 1010.0
20260903204808 57 46 4.0 8.0 0.00 0.00 0.00 88 1010.2
20260903204607 57 46 4.0 6.0 0.00 0.00 0.00 88 1010.3
20260903204408 57 46 3.0 6.0 0.00 0.00 0.00 88 1010.4
20260903204007 57 45 3.0 6.0 0.00 0.00 0.00 88 1010.5
20260903203808 57 45 3.0 6.0 0.00 0.00 0.00 88 1010.4
20260903203607 57 45 3.0 6.0 0.00 0.00 0.00 88 1010.5
20260903203407 57 45 2.0 4.0 0.00 0.00 0.00 88 1010.5
20260903203207 57 45 3.0 4.0 0.00 0.00 0.00 88 1010.7
20260903203008 57 45 3.0 4.0 0.00 0.00 0.00 88 1010.7
20260903202808 57 45 3.0 4.0 0.00 0.00 0.00 88 1010.7
20260903202608 57 45 2.0 4.0 0.00 0.00 0.00 88 1010.7
20260903202408 57 45 2.0 4.0 0.00 0.00 0.00 87 1010.7
20260903202207 57 45 2.0 4.0 0.00 0.00 0.00 87 1010.7
20260903202007 57 45 2.0 4.0 0.00 0.00 0.00 87 1010.7
20260903201807 57 45 2.0 4.0 0.00 0.00 0.00 87 1010.7
20260903201608 57 45 2.0 4.0 0.00 0.00 0.00 87 1010.7
20260903201407 57 45 2.0 4.0 0.00 0.00 0.00 87 1010.8
20260903201007 57 45 3.0 4.0 0.00 0.00 0.00 87 1010.9
20260903200807 57 45 3.0 4.0 0.00 0.00 0.00 87 1010.9
20260903200607 58 45 3.0 6.0 0.00 0.00 0.00 87 1010.9
20260903200407 58 46 3.0 6.0 0.00 0.00 0.00 87 1011.0
20260903200207 58 45 3.0 6.0 0.00 0.00 0.00 87 1011.1
20260903200007 58 46 3.0 6.0 0.00 0.00 0.00 87 1011.1
20260903195807 58 45 3.0 6.0 0.00 0.00 0.00 87 1011.2
20260903195607 58 45 3.0 5.0 0.00 0.00 0.00 87 1011.2
20260903195208 58 46 3.0 6.0 0.00 0.00 0.00 87 1011.2
20260903195008 58 46 3.0 6.0 0.00 0.00 0.00 87 1011.3
20260903194808 58 46 3.0 7.0 0.00 0.00 0.00 87 1011.4
20260903194608 58 46 3.0 7.0 0.00 0.00 0.00 87 1011.4
20260903194407 58 46 3.0 7.0 0.00 0.00 0.00 87 1011.4
20260903194207 58 46 3.0 7.0 0.00 0.00 0.00 87 1011.5
20260903194007 58 46 3.0 7.0 0.00 0.00 0.00 87 1011.5
20260903193807 58 46 3.0 5.0 0.00 0.00 0.00 87 1011.5
20260903193608 58 45 4.0 6.0 0.00 0.00 0.00 87 1011.5
20260903193408 58 46 4.0 6.0 0.00 0.00 0.00 87 1011.5
20260903193207 58 46 3.0 6.0 0.00 0.00 0.00 87 1011.5
20260903193007 58 46 3.0 6.0 0.00 0.00 0.00 87 1011.4
20260903192807 58 46 3.0 6.0 0.00 0.00 0.00 87 1011.4
20260903192607 58 46 3.0 6.0 0.00 0.00 0.00 86 1011.4
20260903192407 58 46 3.0 6.0 0.00 0.00 0.00 87 1011.3
20260903192207 58 45 3.0 7.0 0.00 0.00 0.00 86 1011.2
20260903191807 58 46 3.0 7.0 0.00 0.00 0.00 87 1011.3
20260903191608 58 46 3.0 7.0 0.00 0.00 0.00 87 1011.4
20260903191408 58 46 3.0 7.0 0.00 0.00 0.00 87 1011.3
20260903191007 58 46 2.0 7.0 0.00 0.00 0.00 87 1011.4
20260903190807 58 46 2.0 7.0 0.00 0.00 0.00 87 1011.4
20260903190607 58 46 2.0 7.0 0.00 0.00 0.00 87 1011.6
20260903190408 59 45 2.0 7.0 0.00 0.00 0.00 87 1011.5
20260903190208 59 45 2.0 4.0 0.00 0.00 0.00 87 1011.5
20260903190008 59 45 2.0 4.0 0.00 0.00 0.00 87 1011.5
20260903185807 59 45 2.0 4.0 0.00 0.00 0.00 87 1011.5
20260903185407 59 45 3.0 4.0 0.00 0.00 0.00 87 1011.5
20260903185207 59 45 3.0 6.0 0.00 0.00 0.00 87 1011.5
20260903184808 59 45 3.0 6.0 0.00 0.00 0.00 87 1011.6
20260903184607 59 46 3.0 6.0 0.00 0.00 0.00 87 1011.7
20260903184407 59 46 3.0 7.0 0.00 0.00 0.00 87 1011.7
20260903184007 59 45 3.0 7.0 0.00 0.00 0.00 87 1011.8
20260903183807 59 45 2.0 7.0 0.00 0.00 0.00 87 1011.7
20260903183407 59 45 2.0 6.0 0.00 0.00 0.00 87 1011.8
20260903183207 59 45 2.0 6.0 0.00 0.00 0.00 86 1011.8
20260903183007 59 45 2.0 6.0 0.00 0.00 0.00 86 1011.9
20260903182607 59 46 3.0 6.0 0.00 0.00 0.00 86 1011.9
20260903182408 59 46 3.0 7.0 0.00 0.00 0.00 86 1012.0
20260903182007 59 46 3.0 7.0 0.00 0.00 0.00 86 1012.0
20260903181807 59 46 4.0 7.0 0.00 0.00 0.00 86 1011.9
20260903181607 59 46 4.0 7.0 0.00 0.00 0.00 86 1012.1
20260903181407 59 46 4.0 7.0 0.00 0.00 0.00 86 1012.1
20260903181208 59 45 5.0 7.0 0.00 0.00 0.00 85 1012.2
20260903181008 59 45 5.0 10.0 0.00 0.00 0.00 85 1012.2
20260903180807 59 45 5.0 10.0 0.00 0.00 0.00 85 1012.1
20260903180608 59 45 6.0 10.0 0.00 0.00 0.00 85 1012.2
20260903180407 59 45 6.0 10.0 0.00 0.00 0.00 85 1012.4
20260903180208 59 45 6.0 10.0 0.00 0.00 0.00 85 1012.5
20260903180008 59 46 6.0 10.0 0.00 0.00 0.00 85 1012.6
20260903175607 59 46 6.0 11.0 0.00 0.00 0.00 85 1012.6
20260903175407 59 45 6.0 11.0 0.00 0.00 0.00 85 1012.7
20260903175207 59 46 6.0 11.0 0.00 0.00 0.00 85 1012.7
20260903175007 59 46 5.0 11.0 0.00 0.00 0.00 85 1012.8
20260903174807 59 46 5.0 11.0 0.00 0.00 0.00 85 1012.8
20260903174608 59 46 5.0 11.0 0.00 0.00 0.00 85 1012.7
20260903174208 60 46 5.0 10.0 0.00 0.00 0.00 85 1012.7
20260903174008 60 46 5.0 10.0 0.00 0.00 0.00 85 1012.6
20260903173808 60 45 5.0 10.0 0.00 0.00 0.00 84 1012.7
20260903173608 60 45 4.0 10.0 0.00 0.00 0.00 84 1012.8
20260903173408 60 46 4.0 10.0 0.00 0.00 0.00 84 1013.0
20260903173207 60 45 5.0 12.0 0.00 0.00 0.00 84 1013.1
20260903173007 60 46 5.0 12.0 0.00 0.00 0.00 84 1013.0
20260903172408 60 46 6.0 15.0 0.00 0.00 0.00 83 1013.2
20260903172208 60 46 6.0 15.0 0.00 0.00 0.00 83 1013.2
20260903172007 60 46 6.0 15.0 0.00 0.00 0.00 82 1012.9
20260903171808 60 46 6.0 15.0 0.00 0.00 0.00 82 1012.9
20260903171407 61 46 6.0 15.0 0.00 0.00 0.00 82 1013.3
20260903171208 61 46 6.0 15.0 0.00 0.00 0.00 81 1012.9
20260903171008 61 46 6.0 15.0 0.00 0.00 0.00 81 1012.9
20260903170608 61 45 6.0 14.0 0.00 0.00 0.00 81 1012.5
20260903170407 62 46 6.0 14.0 0.00 0.00 0.00 81 1012.8
20260903170207 62 46 7.0 13.0 0.00 0.00 0.00 81 1012.8
20260903170007 62 46 7.0 13.0 0.00 0.00 0.00 81 1012.7
20260903165807 62 45 7.0 14.0 0.00 0.00 0.00 80 1012.9
20260903165607 62 46 8.0 14.0 0.00 0.00 0.00 80 1012.9
20260903165207 62 45 7.0 14.0 0.00 0.00 0.00 79 1012.3
20260903165008 62 45 7.0 14.0 0.00 0.00 0.00 79 1012.5
20260903164808 63 46 6.0 14.0 0.00 0.00 0.00 78 1012.4
20260903164608 63 46 6.0 13.0 0.00 0.00 0.00 78 1012.3
20260903164408 63 46 5.0 13.0 0.00 0.00 0.00 78 1012.3
20260903164208 63 46 5.0 11.0 0.00 0.00 0.00 79 1012.5
20260903164008 63 46 5.0 11.0 0.00 0.00 0.00 78 1012.4
20260903163807 63 46 5.0 11.0 0.00 0.00 0.00 79 1012.3
20260903163607 63 46 5.0 10.0 0.00 0.00 0.00 79 1012.1
20260903163407 63 46 6.0 10.0 0.00 0.00 0.00 79 1011.9
20260903163007 63 45 6.0 12.0 0.00 0.00 0.00 80 1012.1
20260903162808 63 46 6.0 14.0 0.00 0.00 0.00 80 1012.6
20260903162608 63 45 6.0 14.0 0.00 0.00 0.00 79 1012.8
20260903162408 63 45 6.0 14.0 0.00 0.00 0.00 79 1012.5
20260903162207 63 46 6.0 14.0 0.00 0.00 0.00 79 1012.5
20260903162007 63 46 6.0 14.0 0.00 0.00 0.00 79 1012.7
20260903161808 63 46 6.0 12.0 0.00 0.00 0.00 78 1012.7
20260903161407 63 46 6.0 12.0 0.00 0.00 0.00 78 1012.6
20260903161208 63 46 6.0 13.0 0.00 0.00 0.00 77 1012.6
20260903161007 64 46 5.0 13.0 0.00 0.00 0.00 77 1012.5
20260903160207 65 46 4.0 10.0 0.00 0.00 0.00 75 1012.8
20260903160007 65 46 3.0 10.0 0.00 0.00 0.00 75 1012.8
20260903155807 65 46 3.0 7.0 0.00 0.00 0.00 76 1012.8
20260903155008 65 45 3.0 6.0 0.00 0.00 0.00 79 1013.0
20260903154808 65 45 4.0 6.0 0.00 0.00 0.00 79 1013.0
20260903154608 65 46 4.0 7.0 0.00 0.00 0.00 79 1013.0
20260903154408 65 46 4.0 7.0 0.00 0.00 0.00 79 1013.0
20260903154208 65 45 5.0 7.0 0.00 0.00 0.00 79 1013.0
20260903154008 65 45 5.0 7.0 0.00 0.00 0.00 78 1013.1
20260903153808 65 46 5.0 8.0 0.00 0.00 0.00 78 1013.2
20260903153607 65 46 5.0 8.0 0.00 0.00 0.00 77 1013.3
20260903153407 66 46 5.0 8.0 0.00 0.00 0.00 77 1013.2
20260903153207 66 46 5.0 8.0 0.00 0.00 0.00 77 1013.2
20260903153007 66 45 6.0 10.0 0.00 0.00 0.00 76 1013.2
20260903152807 66 46 6.0 10.0 0.00 0.00 0.00 76 1013.0
20260903152607 66 45 6.0 10.0 0.00 0.00 0.00 75 1013.1
20260903152408 66 46 6.0 11.0 0.00 0.00 0.00 74 1013.1
20260903152208 67 46 6.0 11.0 0.00 0.00 0.00 74 1013.1
20260903152008 67 45 6.0 11.0 0.00 0.00 0.00 73 1013.2
20260903151808 67 45 7.0 14.0 0.00 0.00 0.00 72 1013.2
20260903151608 67 46 7.0 14.0 0.00 0.00 0.00 71 1013.2
20260903151408 67 46 7.0 14.0 0.00 0.00 0.00 70 1013.2
20260903151208 67 46 7.0 14.0 0.00 0.00 0.00 68 1013.3
20260903151008 67 45 7.0 14.0 0.00 0.00 0.00 68 1013.2
20260903150808 67 45 7.0 13.0 0.00 0.00 0.00 69 1013.2
20260903150607 67 45 7.0 13.0 0.00 0.00 0.00 68 1013.2
20260903150407 68 45 7.0 14.0 0.00 0.00 0.00 68 1013.1
20260903150207 68 46 7.0 14.0 0.00 0.00 0.00 67 1013.0
20260903150007 68 45 7.0 14.0 0.00 0.00 0.00 67 1013.1
20260903145807 68 45 7.0 16.0 0.00 0.00 0.00 67 1013.0
20260903145607 68 45 7.0 16.0 0.00 0.00 0.00 67 1013.0
20260903145408 68 45 7.0 16.0 0.00 0.00 0.00 67 1013.1
20260903145208 68 46 7.0 16.0 0.00 0.00 0.00 66 1013.0
20260903145008 69 45 7.0 16.0 0.00 0.00 0.00 66 1013.1
20260903144807 69 46 7.0 14.0 0.00 0.00 0.00 65 1013.3
20260903144607 69 46 7.0 14.0 0.00 0.00 0.00 64 1013.2
20260903144407 69 46 7.0 16.0 0.00 0.00 0.00 64 1013.2
20260903144207 69 45 8.0 16.0 0.00 0.00 0.00 64 1013.2
20260903144007 69 46 8.0 16.0 0.00 0.00 0.00 64 1013.3
20260903143808 69 45 8.0 16.0 0.00 0.00 0.00 63 1013.3
20260903143608 69 46 8.0 16.0 0.00 0.00 0.00 63 1013.4
20260903143408 69 45 8.0 14.0 0.00 0.00 0.00 64 1013.3
20260903143208 69 45 9.0 14.0 0.00 0.00 0.00 64 1013.3
20260903143007 69 45 9.0 14.0 0.00 0.00 0.00 64 1013.2
20260903142807 69 46 10.0 14.0 0.00 0.00 0.00 64 1013.1
20260903142407 69 45 11.0 19.0 0.00 0.00 0.00 63 1013.1
20260903142208 69 46 11.0 19.0 0.00 0.00 0.00 62 1013.2
20260903142007 69 45 11.0 21.0 0.00 0.00 0.00 62 1013.2
20260903141807 70 46 11.0 21.0 0.00 0.00 0.00 61 1013.2
20260903141607 70 46 10.0 21.0 0.00 0.00 0.00 61 1013.0
20260903141407 70 45 10.0 21.0 0.00 0.00 0.00 61 1012.9
20260903141207 70 46 10.0 21.0 0.00 0.00 0.00 62 1012.8
20260903140808 69 45 9.0 18.0 0.00 0.00 0.00 62 1013.0
20260903140408 70 45 10.0 18.0 0.00 0.00 0.00 62 1012.8
20260903140007 69 45 11.0 18.0 0.00 0.00 0.00 61 1012.8
20260903135808 69 45 11.0 27.0 0.00 0.00 0.00 61 1012.6
20260903135408 70 45 10.0 27.0 0.00 0.00 0.00 61 1013.1
20260903135008 70 46 8.0 27.0 0.00 0.00 0.00 60 1013.2
20260903134808 70 45 8.0 23.0 0.00 0.00 0.00 60 1013.3
20260903134608 70 46 8.0 22.0 0.00 0.00 0.00 60 1013.4
20260903134207 70 45 8.0 15.0 0.00 0.00 0.00 61 1012.9
20260903134007 70 45 8.0 15.0 0.00 0.00 0.00 62 1012.8
20260903133807 70 45 9.0 17.0 0.00 0.00 0.00 63 1012.4
20260903133607 70 45 9.0 17.0 0.00 0.00 0.00 63 1012.7
20260903133407 70 45 9.0 17.0 0.00 0.00 0.00 63 1012.7
20260903133007 70 46 10.0 17.0 0.00 0.00 0.00 63 1013.3
20260903132607 70 45 11.0 19.0 0.00 0.00 0.00 63 1013.5
20260903132407 70 45 11.0 19.0 0.00 0.00 0.00 63 1013.5
20260903132207 70 45 11.0 19.0 0.00 0.00 0.00 62 1013.7
20260903132007 70 45 11.0 19.0 0.00 0.00 0.00 62 1013.5
20260903131607 71 45 10.0 22.0 0.00 0.00 0.00 62 1013.5
20260903131207 70 46 9.0 22.0 0.00 0.00 0.00 63 1013.3
20260903131008 70 46 9.0 22.0 0.00 0.00 0.00 62 1013.2
20260903130807 71 46 9.0 22.0 0.00 0.00 0.00 61 1013.2
20260903130609 71 46 9.0 19.0 0.00 0.00 0.00 62 1013.2
20260903130408 71 45 9.0 19.0 0.00 0.00 0.00 62 1013.2
20260903130208 70 45 10.0 19.0 0.00 0.00 0.00 62 1013.0
20260903130008 70 45 10.0 19.0 0.00 0.00 0.00 61 1013.0
20260903125808 70 46 10.0 19.0 0.00 0.00 0.00 62 1012.9
20260903125608 70 46 10.0 23.0 0.00 0.00 0.00 62 1013.0
20260903125008 71 46 9.0 23.0 0.00 0.00 0.00 62 1012.8
20260903124808 71 45 9.0 23.0 0.00 0.00 0.00 61 1012.7
20260903124608 71 45 10.0 18.0 0.00 0.00 0.00 61 1012.8
20260903124408 71 45 10.0 20.0 0.00 0.00 0.00 61 1012.7
20260903124208 71 46 10.0 22.0 0.00 0.00 0.00 62 1012.6
20260903124008 71 45 9.0 22.0 0.00 0.00 0.00 62 1012.9
20260903123807 71 45 9.0 22.0 0.00 0.00 0.00 62 1012.9
20260903123607 71 45 9.0 22.0 0.00 0.00 0.00 61 1013.0
20260903123407 71 46 10.0 22.0 0.00 0.00 0.00 61 1013.0
20260903123208 71 45 10.0 18.0 0.00 0.00 0.00 61 1013.0
20260903123007 71 46 10.0 18.0 0.00 0.00 0.00 62 1012.9
20260903122807 71 45 11.0 18.0 0.00 0.00 0.00 62 1013.0
20260903122407 71 45 11.0 20.0 0.00 0.00 0.00 62 1012.9
20260903122208 71 45 11.0 20.0 0.00 0.00 0.00 63 1013.0
20260903122008 71 45 11.0 21.0 0.00 0.00 0.00 62 1013.1
20260903121608 71 45 11.0 21.0 0.00 0.00 0.00 63 1013.0
20260903121408 71 46 10.0 21.0 0.00 0.00 0.00 63 1013.0
20260903121207 71 46 10.0 21.0 0.00 0.00 0.00 64 1013.0
20260903120807 70 45 9.0 20.0 0.00 0.00 0.00 65 1012.9
20260903120607 70 45 9.0 20.0 0.00 0.00 0.00 65 1013.1
20260903120407 70 45 8.0 20.0 0.00 0.00 0.00 64 1013.2
20260903120208 70 45 8.0 20.0 0.00 0.00 0.00 65 1013.3
20260903120007 70 46 8.0 20.0 0.00 0.00 0.00 67 1013.3
20260903115407 70 45 9.0 17.0 0.00 0.00 0.00 66 1013.3
20260903115208 69 46 9.0 17.0 0.00 0.00 0.00 67 1013.2
20260903115008 69 45 10.0 24.0 0.00 0.00 0.00 67 1013.2
20260903114808 69 45 10.0 24.0 0.00 0.00 0.00 66 1013.3
20260903114408 69 45 11.0 24.0 0.00 0.00 0.00 65 1013.2
20260903114208 69 45 11.0 24.0 0.00 0.00 0.00 65 1013.3
20260903114007 69 46 11.0 21.0 0.00 0.00 0.00 67 1013.2
20260903113808 69 45 12.0 21.0 0.00 0.00 0.00 66 1013.2
20260903113407 69 45 12.0 22.0 0.00 0.00 0.00 67 1013.2
20260903113207 69 45 12.0 22.0 0.00 0.00 0.00 67 1013.2
20260903113007 69 45 12.0 22.0 0.00 0.00 0.00 67 1013.3
20260903112807 69 45 12.0 22.0 0.00 0.00 0.00 67 1013.2
20260903112607 69 45 12.0 21.0 0.00 0.00 0.00 67 1013.2
20260903112407 69 46 12.0 21.0 0.00 0.00 0.00 68 1013.2
20260903112207 69 45 12.0 21.0 0.00 0.00 0.00 69 1013.4
20260903112007 69 46 12.0 20.0 0.00 0.00 0.00 69 1013.5
20260903111807 68 45 12.0 22.0 0.00 0.00 0.00 69 1013.4
20260903111607 68 45 12.0 27.0 0.00 0.00 0.00 69 1013.4
20260903111407 68 45 12.0 27.0 0.00 0.00 0.00 69 1013.4
20260903111207 68 45 12.0 27.0 0.00 0.00 0.00 68 1013.3
20260903111008 68 46 12.0 27.0 0.00 0.00 0.00 68 1013.6
20260903110807 68 45 12.0 27.0 0.00 0.00 0.00 69 1013.7
20260903110407 68 46 11.0 21.0 0.00 0.00 0.00 70 1013.5
20260903110207 68 46 10.0 21.0 0.00 0.00 0.00 70 1013.6
20260903110008 68 45 10.0 21.0 0.00 0.00 0.00 70 1013.8
20260903105607 68 45 9.0 21.0 0.00 0.00 0.00 71 1013.6
20260903105407 68 45 8.0 21.0 0.00 0.00 0.00 71 1013.8
20260903105207 68 45 8.0 21.0 0.00 0.00 0.00 72 1013.8
20260903105008 68 45 8.0 21.0 0.00 0.00 0.00 71 1013.7
20260903104808 68 46 7.0 16.0 0.00 0.00 0.00 71 1013.6
20260903104607 68 45 7.0 16.0 0.00 0.00 0.00 73 1013.7
20260903104207 68 45 7.0 16.0 0.00 0.00 0.00 73 1013.8
20260903104007 68 45 7.0 16.0 0.00 0.00 0.00 73 1013.8
20260903103807 67 45 7.0 14.0 0.00 0.00 0.00 74 1013.7
20260903103607 67 45 7.0 14.0 0.00 0.00 0.00 74 1013.8
20260903103407 67 46 7.0 14.0 0.00 0.00 0.00 75 1013.6
20260903103207 67 46 7.0 14.0 0.00 0.00 0.00 74 1013.5
20260903103007 67 46 7.0 14.0 0.00 0.00 0.00 74 1013.6
20260903102807 67 46 8.0 14.0 0.00 0.00 0.00 75 1013.7
20260903102607 67 45 8.0 14.0 0.00 0.00 0.00 75 1013.8
20260903102407 67 45 8.0 14.0 0.00 0.00 0.00 75 1013.8
20260903102207 67 45 8.0 14.0 0.00 0.00 0.00 75 1013.9
20260903102007 67 45 8.0 16.0 0.00 0.00 0.00 75 1013.9
20260903101807 67 45 8.0 16.0 0.00 0.00 0.00 75 1013.9
20260903101407 67 45 8.0 16.0 0.00 0.00 0.00 76 1013.9
20260903101208 67 45 9.0 16.0 0.00 0.00 0.00 76 1013.9
20260903101007 66 46 9.0 16.0 0.00 0.00 0.00 76 1013.9
20260903100807 66 45 9.0 16.0 0.00 0.00 0.00 76 1013.9
20260903100607 66 45 8.0 17.0 0.00 0.00 0.00 76 1014.0
20260903100407 66 45 8.0 17.0 0.00 0.00 0.00 76 1014.0
20260903100008 66 45 7.0 17.0 0.00 0.00 0.00 76 1013.9
20260903095807 66 45 7.0 17.0 0.00 0.00 0.00 76 1013.9
20260903095607 66 45 7.0 14.0 0.00 0.00 0.00 76 1013.9
20260903095407 66 45 7.0 14.0 0.00 0.00 0.00 76 1013.8
20260903095208 66 45 8.0 14.0 0.00 0.00 0.00 77 1013.9
20260903094807 66 46 8.0 17.0 0.00 0.00 0.00 77 1013.9
20260903094407 66 46 8.0 17.0 0.00 0.00 0.00 77 1013.9
20260903094207 66 45 8.0 17.0 0.00 0.00 0.00 77 1013.9
20260903094008 66 45 8.0 14.0 0.00 0.00 0.00 78 1013.8
20260903093807 66 45 8.0 14.0 0.00 0.00 0.00 78 1013.9
20260903093607 66 46 8.0 14.0 0.00 0.00 0.00 79 1014.0
20260903093407 65 45 8.0 15.0 0.00 0.00 0.00 78 1014.1
20260903093207 65 45 8.0 15.0 0.00 0.00 0.00 79 1014.1
20260903092807 65 46 8.0 15.0 0.00 0.00 0.00 79 1014.1
20260903092607 65 45 8.0 15.0 0.00 0.00 0.00 79 1014.2
20260903092207 65 46 8.0 15.0 0.00 0.00 0.00 79 1014.3
20260903092007 65 46 8.0 13.0 0.00 0.00 0.00 80 1014.2
20260903091808 65 45 8.0 14.0 0.00 0.00 0.00 80 1014.2
20260903091608 65 45 7.0 15.0 0.00 0.00 0.00 80 1014.1
20260903091408 65 45 7.0 15.0 0.00 0.00 0.00 80 1014.1
20260903090808 65 45 5.0 15.0 0.00 0.00 0.00 81 1014.4
20260903090608 64 46 5.0 11.0 0.00 0.00 0.00 81 1014.2
20260903090207 64 46 4.0 10.0 0.00 0.00 0.00 82 1014.4
20260903090010 64 45 4.0 10.0 0.00 0.00 0.00 82 1014.3
20260903085807 64 45 4.0 10.0 0.00 0.00 0.00 83 1014.5
20260903085607 64 46 4.0 8.0 0.00 0.00 0.00 83 1014.5
20260903085207 64 46 4.0 8.0 0.00 0.00 0.00 83 1014.3
20260903084607 63 46 4.0 10.0 0.00 0.00 0.00 84 1014.6
20260903084208 63 45 3.0 10.0 0.00 0.00 0.00 84 1014.6
20260903084008 63 45 3.0 10.0 0.00 0.00 0.00 84 1014.5
20260903083808 63 46 3.0 8.0 0.00 0.00 0.00 85 1014.6
20260903083407 63 46 3.0 8.0 0.00 0.00 0.00 85 1014.7
20260903083207 62 45 3.0 8.0 0.00 0.00 0.00 85 1014.7
20260903083007 62 45 4.0 6.0 0.00 0.00 0.00 85 1014.6
20260903082807 62 45 4.0 6.0 0.00 0.00 0.00 85 1014.6
20260903082608 62 45 4.0 7.0 0.00 0.00 0.00 85 1014.4
20260903082207 62 45 5.0 7.0 0.00 0.00 0.00 86 1014.4
20260903082007 62 46 5.0 7.0 0.00 0.00 0.00 86 1014.4
20260903081807 62 45 5.0 8.0 0.00 0.00 0.00 86 1014.4
20260903081607 62 46 5.0 8.0 0.00 0.00 0.00 86 1014.5
20260903081407 62 46 5.0 8.0 0.00 0.00 0.00 86 1014.3
20260903081207 62 45 5.0 8.0 0.00 0.00 0.00 86 1014.4
20260903081007 62 46 5.0 8.0 0.00 0.00 0.00 86 1014.4
20260903080807 62 46 5.0 8.0 0.00 0.00 0.00 86 1014.4
20260903080607 62 45 5.0 8.0 0.00 0.00 0.00 86 1014.6
20260903080407 62 46 4.0 7.0 0.00 0.00 0.00 86 1014.8
20260903080207 62 45 4.0 7.0 0.00 0.00 0.00 86 1014.8
20260903080007 62 46 4.0 7.0 0.00 0.00 0.00 86 1014.9
20260903075807 62 45 4.0 6.0 0.00 0.00 0.00 87 1014.7
20260903075407 62 46 4.0 7.0 0.00 0.00 0.00 87 1014.7
20260903075007 61 46 4.0 7.0 0.00 0.00 0.00 87 1014.7
20260903074807 61 46 4.0 7.0 0.00 0.00 0.00 87 1014.5
20260903074607 61 46 4.0 7.0 0.00 0.00 0.00 86 1014.6
20260903074407 61 46 4.0 7.0 0.00 0.00 0.00 87 1014.6
20260903074207 62 46 4.0 7.0 0.00 0.00 0.00 87 1014.6
20260903074007 62 45 4.0 6.0 0.00 0.00 0.00 87 1014.7
20260903073807 62 46 4.0 6.0 0.00 0.00 0.00 87 1014.5
20260903073407 61 45 4.0 7.0 0.00 0.00 0.00 87 1014.7
20260903073207 61 46 4.0 7.0 0.00 0.00 0.00 87 1014.6
20260903073007 61 46 5.0 7.0 0.00 0.00 0.00 87 1014.6
20260903072607 61 46 5.0 8.0 0.00 0.00 0.00 87 1014.5
20260903072407 61 46 5.0 8.0 0.00 0.00 0.00 87 1014.6
20260903072207 61 46 5.0 8.0 0.00 0.00 0.00 87 1014.5
20260903072007 61 46 5.0 8.0 0.00 0.00 0.00 87 1014.5
20260903071807 61 46 5.0 8.0 0.00 0.00 0.00 87 1014.5
20260903071607 61 46 5.0 8.0 0.00 0.00 0.00 87 1014.6
20260903071407 61 46 5.0 9.0 0.00 0.00 0.00 87 1014.5
20260903071207 60 46 5.0 9.0 0.00 0.00 0.00 88 1014.5
20260903071007 60 46 5.0 9.0 0.00 0.00 0.00 88 1014.6
20260903070807 60 45 5.0 9.0 0.00 0.00 0.00 88 1014.6
20260903070607 60 46 5.0 9.0 0.00 0.00 0.00 88 1014.7
20260903070407 60 46 5.0 7.0 0.00 0.00 0.00 88 1014.7
20260903070207 60 46 5.0 7.0 0.00 0.00 0.00 88 1014.7
20260903070007 60 46 6.0 7.0 0.00 0.00 0.00 88 1014.6
20260903065607 60 45 6.0 7.0 0.00 0.00 0.00 87 1014.5
20260903065408 60 45 6.0 8.0 0.00 0.00 0.00 87 1014.6
20260903065207 60 45 6.0 8.0 0.00 0.00 0.00 87 1014.5
20260903065008 60 45 5.0 8.0 0.00 0.00 0.00 87 1014.4
20260903064808 60 46 4.0 8.0 0.00 0.00 0.00 87 1014.4
20260903064608 60 46 4.0 8.0 0.00 0.00 0.00 87 1014.3
20260903064407 60 45 3.0 8.0 0.00 0.00 0.00 87 1014.4
20260903064008 60 45 2.0 6.0 0.00 0.00 0.00 87 1014.4
20260903063808 60 45 2.0 6.0 0.00 0.00 0.00 87 1014.5
20260903063608 60 45 2.0 5.0 0.00 0.00 0.00 87 1014.4
20260903063408 60 45 2.0 4.0 0.00 0.00 0.00 87 1014.4
20260903063208 60 45 2.0 4.0 0.00 0.00 0.00 87 1014.5
20260903063008 60 45 2.0 4.0 0.00 0.00 0.00 87 1014.5
20260903062808 60 45 3.0 7.0 0.00 0.00 0.00 87 1014.6
20260903062608 60 46 3.0 7.0 0.00 0.00 0.00 87 1014.6
20260903062408 60 45 3.0 8.0 0.00 0.00 0.00 87 1014.5
20260903062208 60 46 4.0 8.0 0.00 0.00 0.00 87 1014.3
20260903061808 60 46 4.0 8.0 0.00 0.00 0.00 87 1014.5
20260903061608 60 46 4.0 9.0 0.00 0.00 0.00 87 1014.4
20260903061008 60 45 4.0 9.0 0.00 0.00 0.00 86 1014.5
20260903060807 60 45 4.0 10.0 0.00 0.00 0.00 86 1014.5
20260903060607 60 46 5.0 10.0 0.00 0.00 0.00 86 1014.5
20260903060407 60 46 5.0 10.0 0.00 0.00 0.00 85 1014.5
20260903060207 60 46 6.0 10.0 0.00 0.00 0.00 85 1014.5
20260903060007 60 46 6.0 10.0 0.00 0.00 0.00 85 1014.5
20260903055807 60 45 6.0 10.0 0.00 0.00 0.00 85 1014.5
20260903055407 61 46 6.0 11.0 0.00 0.00 0.00 84 1014.3
20260903055207 61 45 6.0 11.0 0.00 0.00 0.00 84 1014.4
20260903055008 61 46 5.0 11.0 0.00 0.00 0.00 84 1014.3
20260903054808 61 45 5.0 11.0 0.00 0.00 0.00 84 1014.3
20260903054608 61 46 4.0 10.0 0.00 0.00 0.00 84 1014.4
20260903054408 61 46 4.0 10.0 0.00 0.00 0.00 83 1014.3
20260903054207 61 46 4.0 10.0 0.00 0.00 0.00 83 1014.3
20260903054008 61 45 5.0 10.0 0.00 0.00 0.00 83 1014.3
20260903053807 61 45 5.0 10.0 0.00 0.00 0.00 82 1014.3
20260903053607 61 46 6.0 9.0 0.00 0.00 0.00 82 1014.3
20260903053407 61 45 6.0 11.0 0.00 0.00 0.00 82 1014.3
20260903053207 61 46 6.0 11.0 0.00 0.00 0.00 82 1014.3
20260903053008 62 45 6.0 11.0 0.00 0.00 0.00 82 1014.3
20260903052807 62 45 6.0 11.0 0.00 0.00 0.00 81 1014.2
20260903052608 62 45 6.0 11.0 0.00 0.00 0.00 81 1014.2
20260903052407 62 45 6.0 11.0 0.00 0.00 0.00 81 1014.2
20260903052207 62 45 5.0 11.0 0.00 0.00 0.00 81 1014.1
20260903051807 62 45 6.0 11.0 0.00 0.00 0.00 81 1013.9
20260903051407 62 46 6.0 10.0 0.00 0.00 0.00 81 1013.9
20260903051207 62 45 6.0 9.0 0.00 0.00 0.00 81 1013.9
20260903051007 62 45 5.0 11.0 0.00 0.00 0.00 81 1013.8
20260903050807 62 46 5.0 11.0 0.00 0.00 0.00 81 1013.8
20260903050607 62 45 5.0 11.0 0.00 0.00 0.00 81 1013.8
20260903050408 62 45 5.0 11.0 0.00 0.00 0.00 81 1013.8
20260903050008 62 45 5.0 11.0 0.00 0.00 0.00 81 1013.7
20260903045407 62 46 6.0 11.0 0.00 0.00 0.00 81 1013.8
20260903045007 62 45 6.0 11.0 0.00 0.00 0.00 81 1013.7
20260903044807 62 45 6.0 12.0 0.00 0.00 0.00 81 1013.8
20260903044607 62 46 6.0 12.0 0.00 0.00 0.00 81 1013.8
20260903044407 62 45 6.0 12.0 0.00 0.00 0.00 81 1013.8
20260903044207 62 45 6.0 12.0 0.00 0.00 0.00 81 1013.7
20260903043808 62 46 6.0 11.0 0.00 0.00 0.00 81 1013.7
20260903043607 62 45 6.0 11.0 0.00 0.00 0.00 81 1013.8
20260903043207 62 46 6.0 12.0 0.00 0.00 0.00 81 1013.7
20260903043007 62 45 6.0 12.0 0.00 0.00 0.00 81 1013.8
20260903042807 62 46 6.0 12.0 0.00 0.00 0.00 81 1013.8
20260903042608 62 45 6.0 12.0 0.00 0.00 0.00 81 1013.8
20260903042408 62 46 6.0 11.0 0.00 0.00 0.00 81 1013.8
20260903042208 62 46 6.0 11.0 0.00 0.00 0.00 81 1013.7
20260903042007 62 46 6.0 10.0 0.00 0.00 0.00 81 1013.7
20260903041607 62 46 5.0 10.0 0.00 0.00 0.00 81 1013.7
20260903041407 62 45 5.0 10.0 0.00 0.00 0.00 82 1013.7
20260903041007 61 45 4.0 9.0 0.00 0.00 0.00 82 1013.7
20260903040807 61 45 3.0 9.0 0.00 0.00 0.00 82 1013.7
20260903040608 61 46 3.0 9.0 0.00 0.00 0.00 82 1013.7
20260903040408 61 45 3.0 7.0 0.00 0.00 0.00 82 1013.8
20260903040208 61 45 3.0 7.0 0.00 0.00 0.00 82 1013.9
20260903040009 61 46 3.0 8.0 0.00 0.00 0.00 82 1014.0
20260903035808 61 46 3.0 8.0 0.00 0.00 0.00 82 1013.8
20260903035607 61 46 3.0 8.0 0.00 0.00 0.00 82 1013.9
20260903035407 61 45 3.0 8.0 0.00 0.00 0.00 82 1013.8
20260903035207 61 46 3.0 8.0 0.00 0.00 0.00 82 1013.9
20260903035007 61 46 4.0 8.0 0.00 0.00 0.00 82 1014.0
20260903034808 61 46 4.0 8.0 0.00 0.00 0.00 82 1014.0
20260903034608 61 45 4.0 9.0 0.00 0.00 0.00 82 1014.0
20260903034207 61 46 4.0 10.0 0.00 0.00 0.00 82 1014.0
20260903034007 61 45 4.0 10.0 0.00 0.00 0.00 82 1013.9
20260903033807 61 46 4.0 10.0 0.00 0.00 0.00 82 1013.8
20260903033607 61 45 4.0 10.0 0.00 0.00 0.00 83 1014.0
20260903033407 61 45 3.0 10.0 0.00 0.00 0.00 83 1014.0
20260903033007 61 46 3.0 8.0 0.00 0.00 0.00 83 1013.8
20260903032807 61 46 3.0 8.0 0.00 0.00 0.00 83 1013.7
20260903032607 61 45 3.0 8.0 0.00 0.00 0.00 83 1013.7
20260903032408 61 46 3.0 6.0 0.00 0.00 0.00 84 1013.8
20260903032208 61 46 3.0 6.0 0.00 0.00 0.00 83 1013.9
20260903032007 61 45 3.0 6.0 0.00 0.00 0.00 83 1014.0
20260903031607 61 46 3.0 6.0 0.00 0.00 0.00 84 1014.0
20260903031407 61 45 3.0 6.0 0.00 0.00 0.00 84 1013.9
20260903031007 61 46 3.0 8.0 0.00 0.00 0.00 84 1013.9
20260903030807 61 46 3.0 8.0 0.00 0.00 0.00 84 1014.0
20260903030207 61 46 3.0 9.0 0.00 0.00 0.00 84 1014.0
20260903025807 61 46 3.0 9.0 0.00 0.00 0.00 84 1013.9
20260903025608 61 46 3.0 7.0 0.00 0.00 0.00 84 1013.9
20260903025408 61 46 4.0 7.0 0.00 0.00 0.00 84 1013.8
20260903025207 61 45 4.0 7.0 0.00 0.00 0.00 83 1013.8
20260903025007 61 45 4.0 8.0 0.00 0.00 0.00 83 1013.8
20260903024807 61 46 4.0 8.0 0.00 0.00 0.00 83 1013.8